{"data":{"norad_id":45677,"intl_designator":"2020-035W","name":"STARLINK-1392","alt_names":[],"object_type":"PAYLOAD","status":"ACTIVE","operator":null,"country":"US","launch_date":"2020-06-04","launch_site_code":"AFETR","launch_vehicle":null,"mission":null,"orbit_class":"UNKNOWN","rcs_meters":null,"size_class":null,"mass_kg":null,"dimensions":null,"purposes":["comms"],"wikipedia_slug":null,"has_3d_model":false,"image_url":null,"decayed_at":null,"tle_current":{"epoch":"2026-09-20T04:28:19.966944Z","epoch_age_seconds":45347,"freshness":"FRESH","line1":"1 45677U 20035W   26263.18634221  .00047645  00000+0  90846-3 0  9990","line2":"2 45677  53.1488 229.3596 0001565  70.3884 289.7293 15.47719868348701","mean_motion":15.47719868,"eccentricity":0.0001565,"inclination_deg":53.1488,"raan_deg":229.3596,"arg_perigee_deg":70.3884,"mean_anomaly_deg":289.7293,"bstar":0.00090846,"rev_number":34870,"period_min":93.040092704942,"perigee_km":422.33354397411,"apogee_km":424.46242442417,"semimajor_km":6801.5349841991,"source":"CELESTRAK","updated_at":"2026-09-20T09:00:38.451999Z"}}}